"Pseudo-MPEC" for P11DAVj

Created 2023 Mar 26 5:22:08 UT using Find_Orb

Click here for an explanation of pseudo-MPECs

 
 Astrometry: 
     P11DAVj* C2023 03 18]p5FXut*''GUB4.C*cX=J1ipq7AAstrometry%%OiKbdy$H+I6'^F51
     P11DAVj  C2023 03 18x%hb7+fHO6O(pY\O/%TKC.Olh4;$;yW@BsX'_ZVO/VWZ6mcyr$LSF51
     P11DAVj  C2023 03 18.:A#s\#PWE#iLI]k3mredacted;#G]p06i(:+.Gm#hpv%M6L]%SyF51
     P11DAVj  C2023 03 18(jj;]mbudMe-click/8'_AJ/qO]Qec4D3L`WBxK^si18vuh9'4J6F51
     P11DAVj  C2023 03 18_SMj7$-kBndFMI?p41Fhere/P4*;6TRO-Y?%Jwu2hfor=Zk(rQyCF52
     P11DAVj  C2023 03 18?0iO:$+DsBR%q__k/h9A11!9'NDZqckal+?xP8explanationt(EF52

Station data:
(F51) Pan-STARRS 1, Haleakala  (N20.707234 W156.255910)  US/Hawaii.
   Observers J. Bulger, T. Lowe, A. Schultz, M. Willman. Measurers K.
   Chambers, S. Chastel, T. de Boer, L. Denneau, J. Fairlamb, H. Flewelling,
   M. Huber, C.-C. Lin, E. Magnier, Y. Ramanjooloo, R. Wainscoat, R. Weryk.
   1.8-m Ritchey-Chrétien + CCD.
(F52) Pan-STARRS 2, Haleakala  (N20.707382 W156.255910)  US/Hawaii.
   Observers J. Bulger, T. Dukes, T. Lowe, A. Schultz, M. Willman. Measurers
   K. Chambers, S. Chastel, T. de Boer, L. Denneau, J. Fairlamb, H.
   Flewelling, M. Huber, C.-C. Lin, E. Magnier, Y. Ramanjooloo, R. Wainscoat,
   R. Weryk. 1.8-m Ritchey-Chrétien + CCD.

Orbital elements:  P11DAVj
   Perihelion 2023 Jul 19.79255 +/- 157 TT = 19:01:16 (JD 2460145.29255)
Epoch 2023 Mar 18.0 TT = JDT 2460021.5   Earth MOID: 0.1776   Ve: 0.0453
M 254.74593051 +/- 100              (J2000 ecliptic)             AutoNEOCP
n   0.85024558 +/- 0.339            Peri.  182.48554 +/- 34
a   1.10350200 +/- 0.294            Node   125.19937 +/- 39
e   0.3024520 +/- 0.193             Incl.   10.30283 +/- 27
P   1.16/423.40d           H 22.84  G  0.15   U 12.0  SR
q 0.76974556 +/- 0.329    Q 1.43725844 +/- 2.19
From 6 observations 2023 Mar. 18 (2.3 hr); mean residual 0".06
Residuals in arcseconds: 
230318 F51  .03+  .02+    230318 F51  .02+  .05+    230318 F52  .06+  .09-    
230318 F51  .04+  .07-    230318 F51  .13-  .02+    230318 F52  .02-  .08+    

Ephemerides (geocentric):
Date (UTC) HH   RA             Dec           delta  r     elong  mag " sig PA
---- --------  ------------   ------------  ------ ------ -----  --- --------
2023 03 26 05  11 13 30.291   +42 04 24.19  .31990 1.2398 133.6 22.3 3941  47
2023 03 26 06  11 13 22.864   +42 05 41.15  .31990 1.2396 133.5 22.3 3987  47
2023 03 26 07  11 13 15.436   +42 06 57.97  .31990 1.2394 133.5 22.3 4033  47
2023 03 26 08  11 13 08.007   +42 08 14.65  .31990 1.2393 133.4 22.3 4079  47
2023 03 26 09  11 13 00.578   +42 09 31.19  .31990 1.2391 133.4 22.3 4126  47
2023 03 26 10  11 12 53.147   +42 10 47.60  .31991 1.2389 133.3 22.3 4173  47
2023 03 26 11  11 12 45.716   +42 12 03.87  .31991 1.2388 133.3 22.3 4221  47
2023 03 26 12  11 12 38.285   +42 13 20.00  .31991 1.2386 133.2 22.3 4269  47
2023 03 26 13  11 12 30.852   +42 14 35.99  .31991 1.2384 133.1 22.3 4317  47
2023 03 26 14  11 12 23.419   +42 15 51.84  .31991 1.2382 133.1 22.3 4365  47
2023 03 26 15  11 12 15.986   +42 17 07.56  .31991 1.2381 133.0 22.4 4414  47
2023 03 26 16  11 12 08.552   +42 18 23.14  .31991 1.2379 133.0 22.4 4464  47
2023 03 26 17  11 12 01.117   +42 19 38.58  .31992 1.2377 132.9 22.4 4513  47
2023 03 26 18  11 11 53.682   +42 20 53.88  .31992 1.2376 132.9 22.4 4563  47
2023 03 26 19  11 11 46.246   +42 22 09.04  .31992 1.2374 132.8 22.4 4614  47
2023 03 26 20  11 11 38.810   +42 23 24.06  .31992 1.2372 132.8 22.4 4665  47
2023 03 26 21  11 11 31.374   +42 24 38.95  .31993 1.2371 132.7 22.4 4716  47
2023 03 26 22  11 11 23.937   +42 25 53.70  .31993 1.2369 132.6 22.4 4768  47
2023 03 26 23  11 11 16.499   +42 27 08.30  .31993 1.2367 132.6 22.4 4820  47
2023 03 27 00  11 11 09.062   +42 28 22.77  .31994 1.2366 132.5 22.4 4872  47
2023 03 27 01  11 11 01.624   +42 29 37.10  .31994 1.2364 132.5 22.4 4925  47
2023 03 27 02  11 10 54.185   +42 30 51.30  .31995 1.2362 132.4 22.4 4978  46
2023 03 27 03  11 10 46.747   +42 32 05.35  .31995 1.2361 132.4 22.4 5032  46
2023 03 27 04  11 10 39.308   +42 33 19.26  .31995 1.2359 132.3 22.4 5086  46
2023 03 27 05  11 10 31.869   +42 34 33.04  .31996 1.2357 132.3 22.4 5140  46
2023 03 27 06  11 10 24.430   +42 35 46.67  .31996 1.2355 132.2 22.4 5195  46
2023 03 27 07  11 10 16.991   +42 37 00.17  .31997 1.2354 132.2 22.4 5251  46
2023 03 27 08  11 10 09.551   +42 38 13.53  .31997 1.2352 132.1 22.4 5306  46
2023 03 27 09  11 10 02.112   +42 39 26.75  .31998 1.2350 132.0 22.4 5362  46
2023 03 27 10  11 09 54.672   +42 40 39.83  .31998 1.2349 132.0 22.4 5419  46
2023 03 27 11  11 09 47.233   +42 41 52.77  .31999 1.2347 131.9 22.4 5476  46
2023 03 27 12  11 09 39.793   +42 43 05.57  .31999 1.2345 131.9 22.4 5534  46
2023 03 27 13  11 09 32.353   +42 44 18.23  .32000 1.2344 131.8 22.4 5592  46
2023 03 27 14  11 09 24.914   +42 45 30.75  .32000 1.2342 131.8 22.4 5650  46
2023 03 27 15  11 09 17.475   +42 46 43.14  .32001 1.2340 131.7 22.4 5709  46
2023 03 27 16  11 09 10.035   +42 47 55.38  .32002 1.2339 131.7 22.4 5768  46
2023 03 27 17  11 09 02.596   +42 49 07.48  .32002 1.2337 131.6 22.4 5828  46
2023 03 27 18  11 08 55.157   +42 50 19.45  .32003 1.2335 131.5 22.4 5888  46
2023 03 27 19  11 08 47.718   +42 51 31.28  .32003 1.2333 131.5 22.4 5949  46
2023 03 27 20  11 08 40.280   +42 52 42.96  .32004 1.2332 131.4 22.4 6010  46
2023 03 27 21  11 08 32.841   +42 53 54.51  .32005 1.2330 131.4 22.4 6072  45
2023 03 27 22  11 08 25.403   +42 55 05.92  .32006 1.2328 131.3 22.4 6134  45
2023 03 27 23  11 08 17.966   +42 56 17.18  .32006 1.2327 131.3 22.4 6197  45
2023 03 28 00  11 08 10.528   +42 57 28.31  .32007 1.2325 131.2 22.4 6260  45
2023 03 28 01  11 08 03.091   +42 58 39.30  .32008 1.2323 131.2 22.4 6324  45
2023 03 28 02  11 07 55.655   +42 59 50.15  .32009 1.2321 131.1 22.4 6388  45
2023 03 28 03  11 07 48.219   +43 01 00.86  .32009 1.2320 131.0 22.4 6453  45
2023 03 28 04  11 07 40.783   +43 02 11.43  .32010 1.2318 131.0 22.4 6518  45